GFSSW_250_spd_189.txt.gz
Wind_Speed
18 20 23 26 25 20 19 17 16 14 11 10 11 13 16 18 18 19 20 21 22 21 21 19 19 21 21 17 18 21 23 25 26 28 29 29 29 30 33 34 33 38 39 40 39
22 23 24 22 20 21 18 16 14 11 11 13 15 17 18 19 19 21 23 24 24 24 24 24 24 25 25 24 24 26 26 30 34 36 36 38 39 40 38 37 37 37 41 46 48
23 21 19 19 18 16 15 15 14 13 14 16 18 19 20 21 24 25 26 26 27 28 29 27 28 29 28 28 29 33 35 38 39 39 41 41 42 45 54 53 43 43 43 43 50
20 21 19 18 18 16 15 16 16 17 19 19 20 21 23 26 28 29 28 28 30 31 31 31 32 32 32 32 34 38 41 42 45 46 47 47 53 58 59 58 56 57 56 55 53
20 19 19 19 18 19 18 18 19 19 20 21 23 25 26 28 29 29 30 31 33 33 34 34 35 34 32 35 40 43 42 44 45 47 50 54 61 62 65 65 68 70 72 66 64
17 17 18 19 18 18 19 21 21 21 22 24 25 26 27 28 29 30 32 34 34 36 37 38 40 39 41 44 47 47 50 52 53 54 57 54 55 58 62 68 68 70 72 75 76
19 19 18 17 17 18 19 21 22 23 24 24 25 26 28 30 32 34 36 37 38 39 40 42 44 45 48 52 55 54 54 60 61 64 62 57 63 65 69 71 72 77 77 77 76
17 16 17 17 18 20 21 21 22 23 26 27 28 29 32 34 36 37 37 38 41 42 44 48 53 56 60 61 60 63 65 65 65 65 66 66 70 73 72 76 82 82 85 85 85
17 18 19 20 21 20 21 23 22 24 27 30 32 32 36 37 37 38 40 43 47 51 54 56 57 60 62 63 65 69 67 68 66 59 64 72 72 80 85 88 88 91 92 94 93
19 21 21 23 21 20 22 25 28 31 33 34 36 39 42 44 44 47 50 53 55 57 60 61 63 65 65 71 73 73 74 71 70 78 76 76 84 86 92 93 95 95 96 99 101
21 22 23 23 25 27 30 31 34 38 39 41 44 46 48 50 51 54 56 58 60 63 65 65 69 71 77 79 80 82 80 78 79 83 84 87 83 88 97 98 104 102 103 104 107
25 28 28 29 30 33 35 37 39 42 45 46 49 52 54 55 57 60 62 64 66 70 74 77 78 81 86 84 86 85 82 81 78 86 87 92 91 101 106 109 111 112 115 116 116
32 33 34 35 36 38 40 43 46 47 48 51 53 57 61 63 65 66 67 69 73 76 79 84 85 87 91 90 87 85 83 85 87 92 96 101 101 110 112 114 118 119 119 116 116
36 38 40 41 43 44 45 48 50 52 54 57 60 63 65 67 70 73 74 76 77 81 89 91 91 89 89 89 92 91 96 95 99 100 102 106 110 111 118 115 112 114 120 121 120
44 46 46 48 47 50 51 52 55 58 59 59 63 67 69 71 75 76 79 81 88 94 95 94 98 94 88 94 100 96 99 103 107 106 109 109 122 120 117 124 130 121 117 119 115
51 49 50 51 52 54 55 56 60 63 64 67 69 70 71 75 78 83 87 91 96 101 103 103 106 94 94 99 109 113 115 113 115 115 120 119 126 122 125 121 122 119 123 115 109
51 51 50 53 57 58 59 61 65 67 72 73 74 74 76 80 81 83 92 95 100 104 102 99 101 105 94 97 111 111 113 123 128 131 136 134 134 133 132 125 124 122 110 99 94
49 51 54 55 58 61 64 69 70 74 77 77 79 80 84 86 90 96 97 100 107 105 102 99 92 106 112 112 118 124 127 132 133 128 131 127 130 128 123 115 109 99 93 91 85
55 56 58 59 61 65 69 73 77 81 83 85 86 87 90 94 96 98 99 108 102 105 102 106 106 120 122 125 132 123 126 125 127 133 132 126 117 124 114 108 98 88 85 83 79
57 57 61 63 66 70 74 77 83 84 88 92 95 97 101 104 107 107 110 110 105 104 115 112 110 125 127 128 128 123 127 127 128 129 125 111 109 111 103 93 88 83 82 77 72
58 60 64 68 73 76 80 82 86 91 94 97 100 102 106 110 110 113 109 107 107 111 120 124 127 126 131 129 123 127 123 123 119 118 113 108 98 92 92 85 80 81 77 71 67
63 65 69 73 77 78 83 86 91 98 101 98 97 101 104 105 109 100 107 115 120 130 136 135 132 134 126 132 128 124 117 114 108 104 99 94 88 86 80 77 76 73 71 65 61
70 70 74 79 82 86 89 89 94 96 98 102 106 109 110 102 108 115 117 127 134 138 139 138 137 133 129 125 116 114 111 103 98 95 88 85 80 77 68 71 70 68 65 63 59
77 79 81 86 90 94 95 98 106 108 112 112 107 110 114 110 119 123 126 132 136 137 138 140 131 129 121 115 112 105 99 93 89 86 80 77 75 74 66 61 62 62 62 59 57
85 88 91 92 94 101 104 107 112 116 112 110 109 114 117 123 122 131 138 142 141 136 136 131 121 118 110 107 103 98 93 85 81 78 72 72 65 69 63 60 58 56 57 55 55
92 94 97 100 104 107 108 112 115 112 109 112 114 117 122 128 132 138 142 145 140 133 128 124 118 110 101 98 94 89 85 81 77 73 68 64 63 60 59 54 53 53 52 52 52
101 104 107 107 111 115 114 114 118 119 118 120 122 127 131 135 140 144 143 138 135 128 121 114 108 100 93 91 88 86 82 76 70 66 61 59 57 55 53 50 49 51 50 46 41

GFSSW_250_spd_192.txt.gz
Wind_Speed
15 17 19 21 24 23 19 21 18 16 16 15 13 13 14 16 18 18 18 20 21 20 20 21 23 24 25 25 26 27 26 27 27 30 30 32 33 35 36 38 35 40 39 40 42
18 20 21 23 22 20 20 18 16 16 16 15 14 15 17 18 19 20 22 23 24 23 23 25 26 26 27 28 28 28 28 30 32 35 36 38 40 40 41 42 44 48 49 48 48
20 20 19 19 20 19 19 17 16 15 15 15 16 17 19 20 23 24 25 24 25 25 26 27 27 27 28 30 31 32 32 34 36 40 41 42 43 44 44 49 48 45 48 47 50
19 20 20 20 19 18 17 17 17 17 18 18 18 19 20 22 24 25 26 27 26 27 29 31 30 32 32 34 35 36 38 39 42 44 45 46 49 50 51 53 51 48 51 53 53
20 20 19 17 16 17 17 16 17 18 19 19 19 21 22 22 23 23 24 25 27 29 30 31 33 34 36 37 39 41 43 47 50 51 51 52 55 56 59 60 59 57 56 58 58
19 17 17 17 18 16 16 16 17 19 20 20 21 21 22 24 25 26 27 31 32 34 35 36 38 38 40 42 46 47 50 54 55 57 56 59 63 63 65 63 66 63 62 64 64
20 19 18 18 18 18 18 19 20 20 21 20 21 23 26 26 27 30 31 32 34 37 40 41 41 43 46 49 55 56 56 60 60 59 61 64 64 67 66 67 66 67 70 70 73
23 24 21 19 20 20 21 21 19 19 19 19 22 24 27 28 30 32 35 36 38 41 45 46 49 51 51 51 54 57 59 61 64 70 68 70 73 77 72 70 70 72 79 81 82
26 23 23 22 23 23 22 21 20 20 23 24 28 30 34 33 35 38 40 41 43 46 48 50 53 55 58 60 60 63 63 68 72 72 72 72 76 85 82 81 81 83 85 85 88
27 25 25 24 23 24 25 26 27 27 27 30 32 33 35 38 41 43 45 47 50 52 55 57 60 62 65 67 68 69 75 76 79 84 87 80 73 80 84 84 87 90 91 91 87
28 29 28 26 26 26 28 30 31 34 33 36 38 38 41 44 47 50 51 53 56 58 61 60 66 68 71 74 74 77 81 87 93 92 92 89 82 78 86 90 90 87 94 99 102
33 34 33 31 32 34 34 35 37 36 39 40 43 44 46 49 50 53 56 59 61 63 65 68 69 73 76 80 85 89 92 94 91 93 92 88 80 89 93 95 98 104 106 103 105
35 37 38 38 39 40 41 42 43 44 45 48 47 50 51 54 56 58 63 68 69 69 71 72 74 77 79 81 90 90 97 99 96 93 93 93 86 89 98 105 111 110 109 111 117
45 44 44 44 43 44 47 48 48 49 47 52 54 55 56 59 61 65 70 72 74 75 77 77 83 86 86 92 101 93 105 103 99 96 91 95 99 97 108 121 121 119 117 118 119
50 53 54 52 51 51 52 53 53 53 52 53 58 59 61 66 68 72 76 77 81 82 86 83 89 93 93 100 102 103 106 103 101 100 105 100 114 107 114 117 127 130 126 120 119
42 45 53 56 56 55 56 56 57 58 57 59 61 63 66 70 74 75 80 84 88 86 90 91 98 103 108 107 110 110 111 110 111 112 114 112 121 119 126 129 129 129 122 119 116
44 45 47 47 49 51 54 58 62 63 60 59 64 67 71 75 77 79 83 84 91 92 94 94 104 109 112 111 107 111 112 114 115 119 124 123 126 125 132 130 121 123 115 109 106
52 49 52 52 56 55 57 59 62 63 66 65 67 72 76 78 80 83 88 92 96 98 96 98 93 103 106 115 118 109 118 125 128 123 120 115 124 132 129 120 118 112 108 103 94
56 54 55 54 56 59 61 64 64 65 68 71 73 76 79 83 83 86 90 93 95 96 98 102 101 109 116 113 115 120 122 130 135 134 135 130 122 127 116 109 105 103 95 88 84
58 56 58 59 60 60 61 64 68 68 73 77 78 80 83 87 91 95 97 100 101 104 105 108 111 109 109 115 118 129 126 130 130 136 132 128 115 110 105 101 93 90 80 76 74
61 59 63 63 66 66 67 68 70 74 78 81 84 88 92 93 97 102 104 108 111 114 117 118 118 108 112 112 121 123 132 127 125 118 118 112 107 101 96 93 86 76 73 68 65
65 64 67 69 68 69 71 74 78 81 84 87 90 96 100 103 101 103 109 117 115 116 117 118 126 127 128 126 130 128 126 125 120 114 109 105 96 89 82 79 75 71 69 63 63
69 68 71 72 73 76 79 81 84 89 93 95 99 101 107 109 109 112 116 117 116 121 127 128 128 131 130 126 129 119 118 117 110 103 96 94 83 84 73 69 70 71 66 61 61
72 71 72 75 77 81 85 88 91 91 95 102 106 109 111 111 117 117 118 121 121 122 126 130 127 132 133 127 125 119 111 106 100 92 88 80 78 76 73 67 64 64 61 59 57
75 75 75 75 79 83 87 91 95 99 100 106 107 111 114 118 117 116 121 124 127 133 131 128 126 129 125 121 117 112 103 97 91 85 79 74 71 70 66 66 62 58 57 57 53
79 76 78 82 87 90 93 95 100 103 108 112 116 116 118 118 121 119 125 127 128 128 130 130 124 123 116 112 105 98 97 90 85 81 74 69 67 62 60 58 57 57 54 51 50
83 85 89 91 95 97 101 106 110 111 113 117 117 118 118 122 122 123 127 129 130 130 128 124 122 119 107 99 94 92 88 85 80 74 68 64 59 55 55 53 52 52 50 49 46

GFSSW_250_spd_195.txt.gz
Wind_Speed
24 16 15 17 20 19 17 16 16 14 13 14 15 14 13 15 16 18 18 19 20 19 18 18 19 19 18 19 20 22 24 25 26 31 30 34 33 38 39 39 41 43 41 35 38
15 16 18 19 18 18 18 17 15 12 13 13 13 14 15 17 17 18 19 18 17 17 17 18 19 20 21 22 23 25 25 28 29 33 35 37 40 40 43 46 46 49 51 48 46
19 18 17 18 18 18 16 15 14 14 14 13 13 14 16 16 16 18 18 18 18 17 18 20 21 22 26 27 28 29 30 33 34 37 38 41 45 46 48 50 53 52 57 58 57
16 17 18 19 19 16 15 15 15 15 14 14 14 14 16 18 18 18 18 19 20 20 23 24 26 28 30 33 34 35 36 37 38 41 46 47 49 50 50 49 54 57 61 63 61
18 18 18 17 17 16 16 16 16 15 15 15 16 16 19 21 17 20 19 20 21 23 25 27 29 32 34 35 37 38 41 41 44 47 46 49 51 51 55 57 63 63 64 68 65
22 21 21 19 18 18 18 17 17 18 18 18 18 19 18 21 21 20 22 23 24 26 28 30 33 34 37 38 41 41 44 46 47 49 49 51 54 55 59 58 65 67 68 70 69
23 22 20 20 21 22 21 21 20 21 21 19 18 18 18 20 23 22 24 25 27 31 32 34 37 38 41 44 46 47 49 52 54 54 54 56 60 61 64 67 73 77 75 73 68
26 24 23 24 25 24 24 23 23 22 21 20 19 21 23 24 25 26 28 29 33 35 37 39 42 45 46 49 53 54 55 56 59 62 62 63 67 72 74 75 76 78 80 78 73
26 26 26 28 28 27 27 27 24 23 24 24 25 26 27 28 29 30 33 36 38 41 42 46 51 54 55 57 59 61 62 62 62 67 68 68 66 77 79 82 83 83 83 82 76
27 28 30 30 31 31 29 28 29 26 28 29 29 32 34 34 36 37 38 41 44 46 47 50 56 61 63 65 66 68 70 71 72 76 79 79 75 82 85 83 85 87 89 88 85
28 30 31 33 34 35 33 31 33 33 33 34 35 36 38 41 41 43 45 47 49 51 52 55 62 66 68 70 71 74 76 77 80 84 89 89 87 93 95 99 97 93 93 86 86
33 34 34 35 36 38 39 39 39 40 41 40 42 43 45 47 49 50 52 54 55 56 57 60 66 70 72 75 78 80 81 81 81 89 94 94 91 98 101 102 104 104 102 102 100
37 40 43 42 42 43 41 44 45 45 45 47 48 50 51 52 53 55 57 59 59 62 64 65 72 75 74 76 79 83 89 90 93 93 98 103 95 103 103 109 108 106 108 111 113
35 36 40 43 46 47 50 49 49 48 49 53 56 57 57 57 58 58 60 62 64 66 69 72 78 79 81 84 89 87 94 95 97 100 100 101 104 99 104 109 113 116 115 113 115
40 39 39 42 44 47 47 47 51 52 50 55 58 58 59 62 62 63 63 65 68 71 74 78 81 84 84 87 93 94 96 99 99 103 108 99 116 111 114 112 115 120 120 124 125
47 48 46 45 45 47 49 50 50 50 52 56 57 58 61 65 66 66 68 70 73 76 81 83 88 92 93 97 100 100 100 103 108 114 115 116 125 126 126 124 124 129 128 127 125
52 52 53 52 50 51 50 51 54 57 59 60 60 62 64 67 69 72 73 74 78 78 79 84 91 97 100 102 104 108 114 117 117 120 122 122 125 126 132 134 133 133 132 125 115
55 55 57 57 57 55 54 54 55 58 59 60 63 66 70 70 72 73 77 80 85 86 86 90 93 102 107 107 106 109 118 126 133 133 130 122 129 131 132 136 132 123 120 112 101
60 60 60 59 60 61 61 59 58 61 65 65 65 65 70 73 75 77 81 85 88 88 94 99 98 104 108 114 117 118 123 130 139 137 143 142 142 148 140 130 124 114 103 95 87
64 65 65 65 65 65 67 68 66 67 69 69 69 72 74 77 80 85 88 93 98 100 105 107 106 105 110 117 124 131 135 137 137 143 147 138 136 133 127 120 111 101 92 81 70
66 68 71 72 70 68 69 69 72 72 74 74 77 78 82 84 87 92 96 99 104 107 110 115 119 116 121 128 133 134 138 139 143 142 146 141 132 114 111 105 98 87 79 73 69
69 69 72 72 72 71 72 72 75 74 74 76 79 82 85 89 91 95 98 101 106 111 118 123 130 130 130 132 137 140 140 142 144 135 131 126 118 112 102 90 82 75 68 65 64
74 75 76 75 74 75 74 70 71 76 78 79 80 80 84 90 94 95 102 110 115 120 124 129 137 143 143 139 143 142 134 136 142 135 118 114 102 95 89 83 74 66 62 63 58
76 74 74 75 77 78 79 79 78 76 76 79 84 91 94 97 103 106 110 116 122 127 133 137 136 137 145 143 145 134 127 133 127 119 112 96 90 86 82 76 72 64 59 55 53
79 78 79 80 81 83 84 85 86 84 84 89 94 98 101 106 112 115 120 123 131 136 138 140 137 139 136 133 134 127 127 120 111 104 97 86 83 80 76 74 68 60 53 53 46
83 85 84 86 85 88 90 89 90 92 94 98 102 107 113 116 119 119 125 131 131 131 134 136 136 135 124 124 122 115 117 107 98 92 86 83 79 74 70 65 59 53 49 47 43
86 86 87 88 94 95 95 96 97 98 101 107 111 113 120 124 126 129 132 133 134 132 132 132 132 128 117 115 110 105 98 93 89 86 80 75 70 66 61 55 51 49 45 41 38

GFSSW_250_spd_198.txt.gz
Wind_Speed
19 13 9 12 15 17 16 14 15 15 13 11 12 14 14 14 16 16 17 17 15 15 14 14 14 12 13 15 17 19 21 23 23 27 27 28 31 34 33 35 37 36 36 38 42
11 12 14 16 15 15 16 15 15 15 12 11 11 12 14 13 15 15 15 15 15 16 15 14 16 17 17 20 23 24 25 26 27 29 31 34 36 37 40 40 39 40 39 39 40
16 17 15 14 15 16 16 16 15 15 14 12 12 14 14 13 15 15 16 16 16 15 15 16 18 19 20 22 24 25 27 30 30 32 34 37 40 42 44 44 45 47 46 45 48
15 15 16 18 18 17 15 15 15 15 14 14 14 16 15 16 17 18 16 16 15 15 16 18 18 19 22 23 26 24 27 31 34 36 39 40 43 44 46 49 51 53 56 55 53
16 17 19 19 20 19 18 17 17 17 17 16 17 19 18 17 16 15 15 16 17 18 18 20 22 24 26 27 30 32 32 33 37 37 40 44 47 49 49 51 53 54 54 57 56
18 20 20 21 20 18 19 20 21 21 19 20 20 20 20 16 16 16 17 18 19 20 22 25 27 30 31 31 36 37 40 42 44 46 47 47 51 52 56 56 60 62 63 63 63
21 22 22 21 20 21 23 24 24 23 23 24 23 21 21 21 19 20 22 22 24 25 27 30 32 34 35 36 39 41 45 46 49 51 54 54 56 60 64 66 67 71 72 70 68
22 23 23 23 23 25 28 26 25 26 26 26 24 24 24 26 26 27 26 28 29 30 33 35 38 39 41 43 45 47 48 52 55 58 58 57 60 67 69 70 72 76 79 80 78
21 21 22 23 25 27 30 30 30 29 30 28 29 29 29 31 33 34 35 36 38 38 41 44 47 45 46 48 51 54 55 57 61 65 64 65 63 71 74 76 77 80 83 86 84
20 22 23 26 27 29 30 32 33 33 32 33 33 35 36 37 38 38 41 43 45 46 48 52 55 55 55 55 57 60 61 63 66 69 71 70 67 73 78 81 83 85 87 89 89
25 26 28 31 32 32 32 33 36 37 38 38 38 41 43 42 43 45 46 49 52 54 55 56 61 61 63 64 64 65 67 69 73 75 77 78 77 81 87 90 92 94 96 97 98
31 32 33 35 36 38 40 39 36 38 42 45 48 48 50 50 50 52 54 56 57 59 60 62 66 67 68 70 70 73 75 76 75 80 84 84 82 87 93 96 99 99 103 104 106
31 33 33 33 35 37 39 41 43 42 42 47 49 51 52 53 55 57 60 61 63 64 65 67 70 71 73 73 75 79 83 83 85 86 91 93 87 94 98 102 103 106 107 112 114
32 33 33 34 35 35 36 39 41 45 48 47 46 48 54 57 59 61 63 64 65 67 69 71 74 76 77 79 82 85 88 91 91 94 96 100 99 96 101 106 108 111 115 118 123
36 39 40 41 42 43 41 37 39 43 45 50 51 53 55 55 58 60 63 65 68 69 70 74 77 80 82 84 88 91 95 96 98 103 106 107 114 109 110 114 115 119 121 125 127
43 44 43 46 47 47 47 48 49 46 44 48 51 55 59 62 65 66 67 69 71 72 75 79 81 81 85 90 93 98 100 104 108 112 113 117 122 117 121 125 129 130 131 133 134
48 48 49 50 51 51 51 50 52 54 54 53 53 54 57 62 64 66 68 70 70 71 73 79 84 88 91 96 102 107 110 114 112 116 118 122 127 132 134 136 139 137 132 132 131
52 53 53 54 54 54 55 55 56 59 60 59 59 60 61 64 65 68 70 73 75 78 80 82 86 93 97 102 106 111 116 121 120 122 124 124 131 138 141 144 141 135 132 127 124
55 56 57 57 58 60 59 59 62 63 63 63 63 64 66 67 69 72 74 74 77 80 85 88 89 95 101 106 108 110 116 124 131 128 134 136 138 141 146 144 142 137 128 117 111
59 61 62 62 63 64 65 65 65 67 66 65 67 68 67 67 71 76 78 81 82 83 86 88 88 93 101 107 112 117 122 128 134 139 142 141 139 144 145 140 133 125 116 101 89
63 62 64 64 67 69 69 68 68 68 69 69 70 71 71 73 75 79 82 85 86 89 93 98 101 100 107 115 120 123 130 139 141 146 152 148 139 141 137 130 118 105 95 86 78
65 65 67 68 69 70 70 70 69 70 71 73 74 75 76 79 81 82 85 90 93 98 103 108 113 113 113 122 129 133 139 145 148 146 144 149 135 132 119 110 101 90 79 75 71
69 68 72 73 74 72 71 72 74 75 77 78 79 80 82 85 87 87 91 95 100 104 109 114 120 122 121 130 134 139 145 150 151 148 146 137 125 112 104 93 85 78 72 68 66
75 73 74 76 77 75 75 76 77 77 79 82 85 87 90 93 94 94 97 102 108 112 116 121 126 132 135 138 141 140 144 148 149 143 132 118 108 102 91 86 80 74 67 63 58
79 81 82 82 81 80 82 83 85 86 86 88 90 93 97 100 102 109 112 114 120 123 126 130 132 138 138 142 143 143 142 140 133 126 121 104 99 90 86 81 75 67 61 55 48
78 79 80 82 85 87 90 91 92 92 96 99 102 104 108 109 114 119 121 123 121 124 129 133 136 141 136 142 141 137 134 126 120 113 104 97 92 84 79 72 66 60 52 45 39
78 79 82 84 88 91 94 97 99 101 103 108 111 113 117 119 121 121 121 121 123 123 127 131 139 142 136 139 132 124 122 116 108 103 96 91 84 77 69 63 57 51 45 38 35

GFSSW_250_spd_201.txt.gz
Wind_Speed
18 13 6 9 11 14 15 15 15 17 18 18 16 14 14 14 15 15 15 15 16 15 15 15 15 14 14 14 14 17 18 18 19 20 21 23 26 27 28 30 30 31 33 39 38
8 10 11 14 14 15 15 16 16 17 17 16 16 13 13 13 13 13 15 16 17 16 17 17 15 14 15 15 16 17 19 19 19 22 24 27 28 29 33 35 35 38 39 39 39
13 14 14 14 15 16 18 19 17 18 18 16 16 15 14 15 16 16 17 18 18 17 17 17 17 17 17 17 18 19 21 21 22 22 25 28 31 33 36 36 40 40 38 41 40
14 13 13 15 16 16 17 17 18 17 17 18 18 18 18 18 19 20 19 17 17 18 19 19 20 20 20 22 22 23 25 26 26 30 31 32 35 38 39 43 45 46 45 44 43
13 14 15 16 17 18 18 17 16 18 21 21 20 19 21 22 21 20 19 19 20 22 24 25 24 25 25 28 29 30 29 31 32 33 37 40 41 43 44 48 50 52 52 52 51
14 15 16 17 17 16 16 18 21 22 23 22 22 23 23 22 22 22 23 23 24 25 27 28 30 30 31 33 35 36 37 36 39 40 42 44 48 49 53 53 55 55 57 60 61
16 18 19 19 18 17 18 19 22 24 25 24 25 27 27 23 24 25 26 27 29 32 33 33 33 35 37 38 40 40 44 45 48 48 49 50 54 58 60 60 62 63 65 68 70
17 17 17 18 19 20 21 23 26 26 27 28 29 30 31 31 30 30 31 33 35 36 38 40 40 42 45 47 48 50 51 54 55 57 56 56 59 65 66 67 68 71 73 75 77
14 14 15 17 19 21 22 24 26 28 30 31 31 34 35 35 37 36 36 37 40 43 45 48 49 50 52 54 56 57 58 61 64 67 66 64 63 69 72 73 74 76 77 78 80
17 19 20 22 24 27 30 30 31 30 32 34 36 38 38 41 41 42 44 45 47 48 51 54 55 56 59 61 61 63 65 66 67 70 72 73 72 74 76 79 82 83 83 86 86
23 25 27 27 29 30 32 35 38 37 34 35 39 41 43 45 47 49 51 53 55 56 57 60 61 63 65 66 67 69 71 71 74 77 77 77 77 81 84 87 90 91 91 94 96
26 26 27 28 30 31 31 32 35 38 40 42 43 40 42 47 52 55 56 58 59 59 63 67 68 71 73 73 74 75 75 76 77 80 82 83 81 85 90 93 95 97 99 103 106
27 28 29 29 29 30 30 31 31 31 35 38 41 44 46 47 48 48 52 58 61 63 66 70 73 74 73 74 76 79 79 81 83 83 87 90 87 90 97 98 100 103 106 109 110
31 31 32 34 36 37 36 36 39 39 40 39 38 39 41 44 47 51 55 58 60 63 68 70 72 73 74 76 78 80 83 85 86 89 88 93 94 93 98 102 106 109 110 112 113
37 39 38 38 41 43 42 41 41 43 43 45 46 46 46 48 49 50 52 54 59 64 66 69 71 73 77 79 82 84 87 90 92 95 96 99 105 102 105 109 111 111 114 118 122
42 43 43 44 44 45 46 46 48 48 49 51 52 52 54 56 54 55 56 59 61 63 66 72 74 76 79 81 86 90 93 96 98 101 102 105 108 104 109 113 116 119 122 126 129
46 48 49 49 49 50 50 52 52 54 55 57 58 59 61 61 59 58 59 60 63 65 66 70 75 80 84 88 93 96 98 101 99 102 105 107 111 115 118 119 125 129 133 135 136
51 52 53 55 55 55 55 56 57 59 59 60 62 62 62 63 60 62 63 63 64 66 69 71 74 79 83 88 94 100 104 109 110 109 108 108 117 119 123 128 130 134 137 135 135
54 55 57 58 59 59 59 59 61 61 62 65 65 62 60 61 63 65 65 67 71 74 78 80 80 85 89 93 99 102 106 114 120 119 122 120 121 124 134 134 135 133 130 130 124
57 58 59 59 60 62 62 64 64 65 66 67 70 64 62 64 67 70 72 75 76 79 82 85 84 88 95 100 106 109 111 114 122 124 126 124 124 129 134 130 128 130 130 121 113
62 61 63 63 66 68 66 68 69 71 72 71 73 71 70 73 74 76 79 82 85 90 95 99 98 100 108 113 115 117 124 129 127 131 136 133 123 136 130 133 125 118 112 107 100
65 67 68 69 69 71 71 71 73 74 73 73 73 75 79 81 82 84 88 92 94 101 104 106 109 107 112 119 122 126 130 134 135 132 136 140 124 129 132 122 117 109 101 92 86
69 70 71 71 71 70 70 68 69 70 72 71 74 79 82 86 90 91 95 98 103 109 112 113 116 118 118 118 123 126 133 137 140 136 134 134 132 130 119 111 106 94 89 82 77
75 73 71 72 71 70 68 67 69 72 73 77 82 86 88 93 95 99 99 104 111 117 123 122 119 121 122 125 130 130 133 138 140 139 136 130 123 118 110 101 94 88 81 74 66
74 75 77 76 75 73 70 74 78 77 79 84 88 92 93 98 102 106 115 116 118 119 121 120 117 120 121 130 136 135 137 139 141 136 128 120 116 105 98 93 87 80 71 62 55
74 71 68 68 69 72 79 81 84 86 89 92 95 97 101 106 109 107 113 116 113 109 110 122 120 127 118 127 133 131 135 132 121 120 114 110 103 97 91 85 76 68 60 52 47
74 74 73 76 78 81 84 86 87 93 96 101 105 107 113 118 119 116 110 114 111 115 118 133 135 129 124 128 125 118 121 115 109 108 101 98 94 89 81 73 65 57 49 43 37

GFSSW_250_spd_204.txt.gz
Wind_Speed
17 11 5 8 10 12 14 15 16 17 19 19 18 17 16 16 16 16 16 17 17 18 19 20 20 19 16 13 15 16 17 18 18 18 19 21 22 22 22 21 21 27 29 32 34
8 10 11 12 12 13 14 15 17 19 19 18 15 14 15 14 14 15 16 17 19 21 20 20 20 19 18 18 19 20 21 20 20 20 21 22 22 25 28 27 27 31 32 33 35
13 13 13 12 13 14 15 17 18 17 16 16 16 15 15 15 16 17 19 20 21 23 22 22 21 21 22 23 23 23 24 23 24 23 26 27 30 32 33 33 36 37 37 38 39
11 10 11 13 14 16 17 17 17 18 17 18 19 18 17 17 19 21 22 22 23 23 23 24 24 25 26 27 26 26 29 30 30 31 32 34 35 38 39 43 45 44 44 44 44
10 11 12 14 16 17 17 17 16 17 18 19 20 20 20 20 21 22 23 23 24 25 26 27 29 30 30 31 32 32 35 36 37 37 40 41 43 46 45 50 51 53 53 52 53
12 13 15 15 14 15 15 17 18 19 20 22 22 21 21 23 25 25 24 26 28 29 30 30 32 35 36 37 38 39 41 41 43 44 46 48 51 52 55 57 59 60 61 60 62
13 13 14 14 14 16 16 17 19 21 22 23 24 24 25 27 28 29 29 30 31 32 34 36 37 38 39 42 43 45 49 50 53 54 55 55 59 61 64 66 69 70 69 69 70
13 13 13 14 15 16 18 20 21 22 24 28 29 28 28 29 31 33 33 35 37 39 39 40 42 45 46 48 50 53 56 60 60 63 64 63 64 69 70 71 74 76 76 76 78
11 12 15 18 20 21 24 26 28 30 29 27 28 33 35 35 36 37 39 42 43 44 46 48 49 51 53 55 56 58 60 63 66 69 69 69 70 75 76 77 79 81 83 83 84
15 18 20 22 25 26 28 30 31 33 34 35 35 33 32 35 40 43 45 46 49 53 55 56 57 59 61 63 65 67 68 70 72 75 78 79 78 79 81 81 82 84 86 87 89
21 22 24 25 25 27 30 32 34 36 37 39 39 40 40 41 41 40 42 45 48 50 54 57 59 62 64 65 67 70 72 73 76 78 76 76 78 81 82 85 87 89 91 93 95
23 24 25 27 29 29 29 28 30 32 34 35 36 36 37 39 40 42 44 46 47 49 50 52 53 56 59 62 65 67 69 72 74 77 79 80 79 84 86 89 92 94 97 100 103
25 27 29 30 30 32 32 33 34 36 37 38 39 38 39 40 41 44 45 46 48 50 53 55 58 58 60 63 67 70 72 73 74 75 78 81 80 85 89 93 96 99 104 106 107
28 30 33 35 35 36 36 37 38 39 40 42 43 44 45 48 50 51 54 55 55 55 57 57 58 61 64 66 68 70 72 75 78 82 82 86 87 86 93 97 101 107 109 112 114
33 36 37 38 39 40 41 43 44 45 47 49 49 50 53 53 51 54 57 59 58 57 57 61 62 64 67 69 71 74 75 79 82 86 89 92 97 93 97 103 109 114 115 116 118
37 40 42 43 45 45 45 47 48 49 50 51 53 55 56 56 58 59 59 59 59 60 61 64 64 66 70 72 75 78 80 84 86 89 92 95 100 98 105 112 116 118 119 121 123
43 45 48 49 50 47 48 50 52 51 53 54 57 58 60 61 62 62 61 59 60 61 62 66 68 72 74 78 84 88 93 97 95 98 102 104 108 107 114 120 124 124 123 125 126
49 51 52 53 53 54 54 55 55 55 56 60 61 60 62 64 65 65 63 64 65 68 70 69 71 77 79 86 93 97 101 109 108 106 105 109 118 118 122 128 127 126 125 124 123
54 56 56 57 58 58 60 59 59 59 62 64 62 61 64 67 67 68 67 64 70 73 76 77 78 83 89 97 102 105 112 116 121 119 120 118 118 120 128 129 126 125 125 124 119
60 61 62 62 62 61 60 61 64 66 65 65 64 63 62 60 62 62 65 70 77 81 82 84 85 91 96 102 108 114 114 119 124 130 127 124 124 125 131 127 122 122 121 114 106
66 70 67 66 62 59 61 67 66 65 66 66 65 63 65 68 70 70 73 79 85 90 95 99 99 100 106 113 114 112 115 121 127 134 143 135 125 136 126 123 119 115 111 104 99
67 67 66 63 64 64 66 65 67 69 70 69 68 66 68 73 72 76 79 84 94 102 102 101 104 102 102 107 109 113 118 124 130 136 138 138 122 128 120 110 106 101 100 97 92
64 63 61 63 63 63 64 66 65 64 63 62 64 68 72 76 79 80 84 87 103 108 106 108 108 104 102 109 114 115 122 128 138 140 138 138 128 116 106 98 98 92 87 83 79
63 63 64 65 67 68 68 66 68 68 65 66 70 76 78 78 82 84 92 99 107 109 108 102 99 106 106 109 114 113 113 131 139 136 137 119 110 105 97 93 86 83 80 75 70
68 67 66 67 70 71 67 66 69 73 75 78 79 83 86 86 89 92 99 108 117 116 106 104 113 108 107 114 123 123 122 133 137 136 130 115 106 96 90 83 77 76 74 70 63
68 68 67 66 71 72 70 69 74 77 81 82 84 86 88 92 95 106 110 118 119 112 109 120 119 117 108 118 119 121 132 132 126 125 117 106 94 91 84 78 75 72 67 60 53
69 68 68 72 79 80 79 75 77 82 89 89 93 92 99 98 106 111 117 121 119 113 118 130 132 132 112 113 109 108 114 116 110 112 102 94 87 83 79 73 70 65 57 49 45